Regional Weather Roundup
Issued by NWS Sterling, VA

Home | Current Version | Previous Version | Graphics & Text | Print | Product List | Glossary On
Versions: 1 2 3 4 5 6 7 8 9 10 11 12 13 14 15 16 17 18 19 20 21 22 23 24 25 26 27 28 29 30 31 32 33 34 35 36 37 38 39 40 41 42 43 44 45 46 47 48 49 50
000
ASUS41 KLWX 221310
RWRLWX

REGIONAL WEATHER ROUNDUP
NATIONAL WEATHER SERVICE BALTIMORE MD/WASHINGTON DC
900 AM EDT FRI AUG 22 2014

Note: "FAIR" indicates few or no clouds below 12,000 feet
with no significant weather and/or obstructions to visibility.
 TC=TEMPERATURE CELSIUS

 * =Non NWS site. Station does not report precipitation (e.g. rain,
    snow, etc.), thunder, or fog.

DCZ001-MDZ009-015-VAZ040>042-051-053>054-221400-
WASHINGTON METRO
  /KDAA//-FT BELVOIR

CITY           SKY/WX    TMP DP  RH WIND       PRES   REMARKS
WASHINGTON NAT PTSUNNY   79  68  69 N8        30.01S
DULLES         MOSUNNY   74  67  78 NE8       30.01S
ANDREWS AFB    MOSUNNY   73  68  85 N8        30.00F
QUANTICO       MOSUNNY   78  67  68 N8        30.01S
COLLEGE PARK*  MOSUNNY   73  70  88 NW5       30.00F
LEESBURG*      CLOUDY    73  70  88 NE3       30.03R
MANASSAS*      SUNNY     75  72  88 CALM      30.00F
GAITHERSBURG*  CLOUDY    70  66  88 CALM      30.06S

$$

MDZ006>007-011-014-221400-
BALTIMORE METRO

CITY           SKY/WX    TMP DP  RH WIND       PRES   REMARKS
BWI AIRPORT    CLOUDY    74  68  81 N5        30.00S
MD SCIENCE CTR   N/A     73  69  87 MISG      30.01R
MARTIN STATE   CLOUDY    73  73 100 CALM      30.02R
ANNAPOLIS      CLOUDY    74  70  87 NW7       29.99S
FORT MEADE*    CLOUDY    73  68  83 NE5       30.03S

$$

MDZ012-015-019>023-221400-
MARYLAND EASTERN SHORE

CITY           SKY/WX    TMP DP  RH WIND       PRES   REMARKS
OCEAN CITY     CLOUDY    77  73  87 CALM      29.97S
SALISBURY      PTSUNNY   77  71  82 E3        29.97S
BAY BRIDGE AP*   N/A     73  70  88 E5        29.99S
CAMBRIDGE*     CLOUDY    77  72  83 N5        29.97S

$$

MDZ017>025-221400-
SOUTHERN MARYLAND

CITY           SKY/WX    TMP DP  RH WIND       PRES   REMARKS
PATUXENT RIVER MOSUNNY   78  69  73 N8        29.98S
ST INIGOES     MOSUNNY   79  68  69 VRB5      29.98R
LEONARDTOWN*   MOSUNNY   75  68  78 N3        30.00S

$$

MDZ003>005-221400-
NORTH CENTRAL MARYLAND

CITY           SKY/WX    TMP DP  RH WIND       PRES   REMARKS
FREDERICK*     CLOUDY   N/A N/A N/A CALM      30.05S
HAGERSTOWN APT CLOUDY    70  66  87 S3        30.03S
WESTMINSTER*   MOSUNNY   72  68  88 CALM      30.04R FOG

$$

MDZ501>502-221400-
WESTERN MARYLAND

CITY           SKY/WX    TMP DP  RH WIND       PRES   REMARKS
OAKLAND*       CLOUDY    64 N/A N/A W3        30.11R FOG
CUMBERLAND*    CLOUDY    72  68  88 CALM      30.06S

$$

VAZ025>031-221400-
SHENANDOAH VALLEY

CITY           SKY/WX    TMP DP  RH WIND       PRES   REMARKS
WINCHESTER*    PTSUNNY   72  68  88 CALM      30.02S
STAUNTON*      LGT RAIN  69  66  92 CALM      30.06S

$$

WVZ021-048>050-054>055-221400-
EASTERN WEST VIRGINIA PANHANDLE

CITY           SKY/WX    TMP DP  RH WIND       PRES   REMARKS
MARTINSBURG    CLOUDY    72  66  81 E5        30.02S
PETERSBURG*    NOT AVBL

$$

VAZ036>039-050-221400-
CENTRAL FOOTHILLS

CITY           SKY/WX    TMP DP  RH WIND       PRES   REMARKS
CHARLOTTESVILL LGT RAIN  71  68  90 S6        30.02S
ORANGE*        CLOUDY    73  68  83 CALM      30.03R

$$

VAZ055>057-221400-
NORTH AND CENTRAL PIEDMONT

CITY           SKY/WX    TMP DP  RH WIND       PRES   REMARKS
FREDERICKSBRG* MOSUNNY   79  69  73 N3        29.99S
STAFFORD*      MOSUNNY   77  73  88 N5        30.04S

$$

NCZ024-NYZ072-PAZ021-071-VAZ022-071-221400-
OTHER REGIONAL OBSERVATIONS

CITY           SKY/WX    TMP DP  RH WIND       PRES   REMARKS
NEW YORK CITY  PTSUNNY   69  64  84 VRB3      30.06R
PHILADELPHIA   CLOUDY    70  66  87 NE7       30.01S
PITTSBURGH     CLOUDY    70  68  93 CALM      30.03R FOG
ROANOKE        LGT RAIN  72  68  87 CALM      30.09S
RICHMOND       PTSUNNY   79  69  71 CALM      30.00S
RALEIGH        PTSUNNY   78  72  81 SW3       30.04R

$$

ANZ530>537-221400-
MARINE OBSERVATIONS

STATION/POSITION TIME  TEMP    WIND        PRES
                       AIR SEA DIR/SP/G
                 (UTC) (F)     (DEG/KT/KT) (MB)
THOMAS PT LIGHT  1300   74 78  340/  8/  9 1016.0R
BALT KEY BRIDGE  1300   73      10/  6/  8 1015.7S
COVE POINT       1300   74     350/ 14/ 15 1015.1R
LEWISETTA        1300   77 80  340/  9/ 13 1015.0R
SOLOMONS ISLAND  1300      80                N/A
PINEY POINT      1300          350/ 10/ 11   N/A

$$



USA.gov is the U.S. government's official web portal to all federal, state and local government web resources and services.